Location: Moydans
(44.3997°N, 5.5038°E)
Time: 00:39:40
(UTC+02:00)

Nauka - Pass Details

Date: 24 September 2021
Orbit: 417 x 423 km, 51.6° (Epoch: 17 October)

Event Time Altitude Azimuth Distance (km) Brightness Sun altitude
Rises 20:51:59 0° 283° (WNW) 2,360 ? -15.1°
Reaches altitude 10° 20:54:21 10° 298° (WNW) 1,498 ? -15.5°
Maximum altitude 20:57:08 24° 355° (N) 927 ? -16.0°
Enters shadow 20:59:00 15° 39° (NE) 1,216 ? -16.3°
